Temp
25 23 23 23 24 25 26 26 27 27 27 28 28 26 26 25 25 29 31 32 33 30 29 30 30 30 30 31 32 32 32 31 31 31 31 32 29 26 25 24 24 24 23 24 24 24 24 23 23 23 22 21 20 19 19 18 19 18 18 18 17 17 18 19 19 19 20 20 20 20 20 20 20 20 20 20 20 20 20 19 19 19 18 18 18 17
25 23 23 25 25 26 27 27 27 27 27 28 27 25 26 26 26 30 32 32 33 30 28 31 30 30 31 31 32 32 31 31 31 31 31 31 31 28 25 24 25 24 24 25 24 24 23 23 24 23 22 21 19 19 19 19 19 18 18 18 17 17 18 19 19 20 20 20 20 20 20 20 21 21 21 20 20 20 19 19 19 19 19 18 18 17
23 23 24 26 26 27 27 27 27 26 27 27 26 25 24 26 28 29 32 32 32 29 28 30 29 29 31 31 32 32 32 31 30 31 31 31 31 28 24 23 23 23 24 24 24 24 24 23 24 23 22 21 19 18 19 19 19 18 18 17 17 17 18 18 19 20 20 19 20 20 21 21 21 21 21 20 20 20 19 19 19 19 19 19 18 18
22 23 25 26 27 27 26 27 28 27 26 26 26 24 23 27 27 25 29 32 32 30 29 30 29 29 31 31 32 32 32 32 31 31 31 31 31 27 23 22 22 22 23 24 23 24 23 23 24 23 22 21 19 19 18 18 19 18 17 18 17 17 17 18 19 19 19 19 19 19 21 21 21 21 21 20 20 20 19 19 19 19 19 19 19 19
23 25 27 27 27 27 26 27 27 26 25 25 25 24 24 27 27 26 28 31 31 29 29 29 26 26 29 30 31 32 32 32 31 31 30 31 30 25 21 22 23 23 23 23 23 23 23 23 23 23 21 20 19 18 17 16 17 17 17 18 17 17 17 18 19 19 19 19 17 17 20 21 20 20 20 20 20 20 20 19 19 19 19 19 19 19
25 27 28 27 27 27 27 26 26 25 23 24 25 26 26 27 28 29 29 28 26 24 27 27 22 22 27 29 31 31 31 32 31 30 30 31 29 23 22 23 23 24 23 21 21 21 23 23 23 22 21 20 18 16 15 16 16 16 17 17 17 16 17 18 19 19 19 20 18 18 20 20 20 20 20 20 20 20 20 20 19 19 19 19 19 19
26 28 28 27 27 28 27 25 26 26 23 22 25 27 27 27 27 28 28 26 22 22 27 28 22 21 25 27 30 31 31 31 30 30 30 31 29 24 22 22 22 24 22 20 19 20 22 23 21 19 18 17 16 15 15 15 16 16 16 17 17 16 17 18 19 19 20 20 20 19 20 20 20 20 20 20 20 20 20 20 19 19 19 19 19 19
27 27 27 28 27 26 25 24 26 27 23 22 27 28 27 27 27 27 27 25 24 24 26 28 25 22 22 25 30 30 30 30 30 30 29 31 30 23 21 21 21 23 23 21 21 22 22 20 17 16 15 15 15 16 17 16 17 17 18 18 17 17 18 18 19 19 20 20 19 18 18 20 21 20 20 20 20 20 20 20 19 19 19 19 19 19
27 26 27 27 26 25 25 25 27 27 25 25 28 29 28 28 28 28 27 25 25 24 22 24 25 22 21 25 30 31 29 29 29 30 29 30 28 22 20 22 22 24 25 24 23 21 18 16 15 15 15 15 15 17 19 18 18 19 19 19 18 18 19 19 19 19 19 19 19 17 16 18 20 20 20 20 20 20 19 19 19 19 19 19 19 19
28 27 27 27 26 25 26 27 28 27 26 27 28 28 29 29 28 28 27 25 24 23 21 22 24 22 21 24 27 28 27 28 29 30 29 30 27 22 22 23 24 25 25 24 22 18 16 16 15 15 15 15 15 17 19 19 18 19 20 19 19 19 19 19 19 19 19 19 20 18 17 18 20 20 20 20 19 19 19 19 19 19 19 18 18 18
28 28 28 27 26 27 27 28 28 28 28 28 28 27 27 28 29 27 26 25 22 21 21 23 24 23 21 23 26 27 27 28 29 29 29 28 24 23 23 23 25 25 24 23 20 17 17 16 15 15 15 15 15 15 17 18 18 19 19 19 18 19 20 20 20 19 19 20 20 19 18 19 20 20 20 20 19 19 19 19 19 19 19 19 18 18
27 27 27 27 28 28 28 28 28 29 29 28 28 27 24 25 26 24 24 23 21 21 22 23 24 23 21 22 26 28 29 30 29 29 29 27 24 23 23 24 25 25 25 22 19 18 18 16 15 15 15 15 15 15 15 16 16 17 17 18 18 18 19 20 19 19 20 20 20 19 19 20 20 20 20 19 19 19 19 19 19 19 19 18 18 18
26 27 27 27 28 28 27 26 27 28 28 28 27 24 22 21 22 21 21 22 21 21 23 24 25 22 21 23 26 28 28 28 29 29 28 27 25 24 24 24 24 24 24 20 18 19 18 16 16 15 14 15 15 15 15 15 16 17 17 18 19 18 19 19 19 19 20 20 20 20 19 20 20 20 20 20 20 20 19 19 19 19 19 19 18 18
23 25 27 26 27 28 27 25 24 25 26 26 25 23 21 21 21 21 21 21 21 21 23 25 24 22 21 24 26 27 26 26 27 27 27 27 25 24 24 23 22 23 24 20 19 19 18 17 17 16 15 15 15 15 16 16 17 17 17 18 19 18 19 19 19 19 20 20 19 19 19 20 20 20 20 20 20 20 20 19 19 19 19 19 18 18
21 22 25 26 26 27 27 26 26 26 26 26 27 25 22 21 21 21 21 21 21 21 22 24 23 21 21 24 26 27 27 26 26 26 26 26 26 25 25 22 20 21 23 22 20 19 18 17 17 17 16 16 16 16 16 16 16 16 16 18 19 19 18 18 18 19 19 19 19 19 19 19 20 20 20 20 20 20 20 19 19 19 19 19 18 17
21 22 26 27 27 27 27 27 28 27 25 26 28 26 22 23 23 21 21 21 21 21 22 22 22 22 23 25 26 27 27 26 26 26 26 25 25 25 25 23 21 21 23 22 20 19 18 18 17 17 17 17 17 17 17 17 16 16 17 17 18 19 18 18 19 19 19 19 19 19 19 20 19 20 20 20 19 19 19 19 19 19 19 18 17 17
21 22 27 28 27 28 27 27 29 27 24 25 26 24 25 27 26 21 21 22 21 21 21 21 21 22 23 24 26 27 26 26 26 26 25 23 23 23 24 24 24 24 23 21 19 18 17 17 16 16 17 17 17 17 17 16 16 17 17 17 18 18 18 18 19 18 18 18 19 19 19 19 19 20 20 19 19 19 19 19 19 19 18 18 17 17
22 22 26 28 26 28 29 28 28 29 27 25 23 24 27 28 26 23 21 21 21 21 21 21 21 21 21 22 25 26 25 25 25 24 23 22 21 22 23 24 24 23 22 19 18 18 17 16 15 16 16 17 16 16 16 16 17 17 17 17 17 17 17 18 18 18 18 18 18 19 19 19 19 19 19 19 19 19 19 19 18 18 18 17 17 17
24 21 23 27 26 28 29 28 26 28 29 27 26 27 26 23 23 23 21 21 21 20 21 21 21 21 21 22 24 25 24 25 24 22 21 21 21 20 21 22 22 21 20 19 18 17 17 16 15 15 15 16 15 15 15 15 16 17 18 18 17 17 17 17 17 17 17 18 18 18 19 19 19 19 19 19 19 18 19 18 18 18 18 17 17 17
25 22 21 25 27 28 28 26 24 25 28 28 27 27 26 23 22 22 22 21 21 20 21 21 21 21 21 22 24 24 23 23 23 21 20 20 20 19 19 19 19 20 20 19 18 17 16 16 15 15 15 15 15 15 15 15 15 17 17 17 17 17 17 17 17 17 17 17 18 18 18 19 19 18 18 18 18 18 18 18 18 18 17 17 17 17
24 22 21 23 27 26 25 25 24 24 25 26 25 24 24 24 23 23 22 22 22 21 21 21 21 20 20 22 23 22 21 20 21 20 19 19 19 18 17 17 18 19 20 20 20 18 17 16 16 15 15 15 15 15 15 14 15 17 17 17 17 17 17 17 17 17 17 17 18 18 18 18 18 18 18 18 18 18 18 18 18 18 17 18 17 17
24 22 21 22 23 23 23 27 28 27 27 26 24 24 24 24 23 22 21 22 22 21 21 21 20 20 20 22 22 21 19 19 20 19 18 17 18 17 16 16 16 18 20 21 21 19 18 17 17 16 15 15 14 15 15 15 16 17 17 17 17 17 17 17 17 17 16 17 17 17 17 18 17 17 18 18 18 18 18 18 18 18 18 18 18 18
23 23 21 21 22 23 24 27 27 27 28 28 27 26 26 25 23 21 20 21 22 21 22 21 19 19 20 22 22 21 18 18 19 20 19 18 18 18 17 16 16 18 20 20 20 20 19 18 18 17 16 16 15 15 16 17 17 17 17 17 18 18 17 17 17 17 17 17 17 17 17 17 17 17 18 18 18 18 18 18 18 18 18 18 18 18
23 22 21 20 21 22 23 25 26 27 27 26 26 27 26 25 24 23 23 22 22 21 21 21 19 19 20 21 22 21 20 19 18 19 20 19 20 20 19 19 18 19 20 20 20 19 19 19 19 19 19 18 18 18 18 18 17 17 17 17 18 17 17 17 17 17 17 17 16 17 17 17 17 17 18 18 18 18 18 18 18 18 18 18 18 18
22 21 21 19 19 19 21 22 23 24 24 23 24 26 26 26 26 25 24 23 22 21 21 21 19 19 20 21 22 21 20 19 19 19 20 19 19 20 20 20 20 19 20 20 20 20 20 20 20 20 19 18 18 18 18 18 18 18 18 18 18 18 18 18 18 17 17 17 17 17 17 17 17 17 17 17 18 18 18 18 18 18 18 18 18 18
21 20 20 20 19 19 18 19 20 20 20 22 22 24 25 26 26 24 22 22 21 21 21 20 19 19 20 21 21 19 18 18 18 18 19 19 19 19 20 20 19 19 20 20 20 20 20 20 20 19 18 17 18 18 18 18 18 18 18 18 18 18 18 18 18 18 17 18 18 17 17 17 17 17 17 17 17 17 18 18 18 18 18 18 18 18
21 21 21 20 20 19 18 19 19 19 20 21 21 21 22 24 25 24 22 21 21 21 20 19 19 19 19 20 19 17 16 16 17 17 17 18 19 19 19 19 19 19 19 19 19 19 19 19 19 19 18 18 18 18 17 17 17 17 17 18 18 18 18 18 18 18 17 18 18 17 17 17 17 17 17 17 17 17 17 17 18 18 18 18 18 18
21 20 21 20 20 20 19 19 19 19 19 19 20 21 21 21 22 22 22 21 21 21 19 19 20 19 19 19 18 17 17 16 16 17 17 18 19 19 19 19 19 19 19 19 19 19 19 19 19 19 19 19 18 17 17 17 17 17 17 17 17 18 18 18 18 18 17 18 18 17 17 17 17 17 17 17 17 17 17 17 17 17 18 18 18 18
21 21 21 20 20 21 21 20 19 19 19 19 19 20 21 20 19 19 21 22 22 20 19 20 19 18 18 18 17 17 17 17 17 18 18 19 19 19 19 19 18 18 18 18 18 18 18 18 19 19 19 19 19 18 18 17 17 17 17 17 17 17 17 18 18 17 17 17 17 17 17 16 16 16 16 17 17 16 16 16 16 17 17 18 18 18
21 21 21 21 20 21 21 21 20 20 19 20 19 19 20 20 18 17 17 18 20 20 19 20 18 17 17 17 16 16 17 17 18 18 18 19 19 19 19 18 18 18 18 18 18 18 17 17 18 18 19 19 20 20 19 19 19 18 18 18 17 17 17 17 17 17 17 17 17 16 16 16 16 16 16 16 16 16 16 16 16 16 17 17 18 18
20 20 21 21 20 20 21 21 20 20 20 19 19 19 20 19 18 18 16 15 17 18 18 18 17 16 16 17 16 16 16 17 17 18 18 18 19 19 19 18 18 18 18 18 17 17 16 15 15 16 16 17 18 18 18 19 19 19 19 18 18 18 17 17 17 17 17 17 17 17 17 17 17 17 16 16 16 16 16 16 16 16 16 17 17 17
19 19 20 20 19 19 21 20 20 20 20 19 19 19 19 18 18 19 17 15 15 16 16 15 15 15 16 17 16 16 16 16 17 17 17 18 18 18 17 17 17 17 17 16 15 14 13 13 13 14 14 14 15 15 15 16 18 18 19 19 19 19 18 18 17 17 17 17 17 17 17 17 17 17 17 16 16 16 16 16 16 16 16 16 17 17
16 18 19 19 18 19 20 21 20 20 18 18 18 18 19 19 18 18 18 17 17 16 16 16 16 16 17 17 16 16 16 16 16 15 15 16 17 16 14 14 14 14 14 14 13 12 12 12 12 12 13 13 13 13 13 13 14 16 17 18 18 19 19 19 18 18 18 18 18 18 18 18 18 17 17 17 16 16 16 16 16 16 16 16 16 16
15 17 18 18 18 18 18 19 19 18 16 16 16 18 19 20 19 18 18 18 18 17 16 18 18 18 17 17 16 15 15 15 14 13 13 13 13 12 11 11 10 10 10 10 10 11 11 11 11 11 11 12 12 12 12 12 12 14 15 15 16 17 18 18 18 18 18 18 18 18 18 18 18 18 17 17 17 16 16 16 16 16 16 15 15 15
16 17 17 17 18 17 16 16 16 16 15 15 16 18 19 19 19 18 18 18 18 18 17 18 18 18 18 18 16 15 14 14 13 12 12 11 11 10 9 9 8 8 7 7 7 8 9 10 10 10 10 10 10 11 11 11 11 12 13 13 14 15 16 16 17 16 16 16 17 17 17 18 18 18 18 18 17 17 17 17 16 16 16 15 15 15
17 17 17 16 16 16 16 15 14 14 15 16 16 17 17 17 17 17 17 17 18 18 18 18 18 18 18 17 15 14 13 12 12 11 10 10 10 9 9 8 8 7 7 7 7 7 7 8 8 8 8 8 9 9 9 10 10 11 11 12 12 13 14 14 15 15 14 14 15 15 16 16 17 17 17 17 17 17 17 17 17 17 16 16 15 15
18 16 16 15 14 15 16 15 14 13 14 15 15 15 16 15 16 16 15 16 18 19 18 18 16 15 15 14 13 12 12 11 10 10 10 9 9 8 8 8 8 8 7 7 7 7 7 6 7 7 7 8 8 8 9 9 9 10 11 12 12 12 13 14 14 13 13 13 14 14 15 15 16 16 16 16 17 17 17 17 17 17 17 16 16 16
19 17 17 16 15 16 16 15 14 13 13 13 13 14 15 16 16 17 16 15 16 17 17 16 15 13 13 12 12 12 12 11 10 10 10 10 9 9 9 9 9 9 8 7 6 6 7 7 7 7 8 8 8 8 9 9 9 9 10 11 12 12 13 13 13 13 12 13 13 14 14 14 15 15 15 16 16 16 16 16 16 17 17 17 16 16
20 19 18 18 17 17 16 15 14 13 12 12 12 13 14 15 16 16 16 14 14 16 16 16 15 14 13 12 12 12 12 11 10 11 11 11 11 11 10 10 10 9 9 8 7 7 8 8 8 8 8 9 9 9 9 10 10 10 10 11 12 12 13 13 12 12 13 13 13 13 13 14 14 15 15 15 15 15 15 15 16 16 16 16 16 16
18 18 18 17 17 17 17 15 13 12 11 12 13 13 14 15 15 15 14 13 14 16 16 16 15 14 14 13 13 13 13 12 11 12 13 13 12 12 12 12 11 11 11 11 10 10 10 10 10 10 10 10 10 10 10 10 10 10 10 11 11 12 12 12 11 12 12 12 12 12 13 13 14 14 14 14 14 14 14 14 15 15 15 15 16 16
16 17 17 17 17 16 16 15 12 11 11 12 13 14 15 14 14 14 13 14 16 16 16 16 15 14 14 13 13 13 13 13 13 13 13 13 13 12 13 12 12 12 12 11 11 11 11 11 11 11 11 11 10 10 10 10 10 10 10 11 11 11 10 10 10 10 10 11 11 11 12 12 13 13 13 13 13 13 14 14 14 14 15 15 15 16
15 15 16 16 15 16 16 15 12 10 11 12 13 15 15 14 13 13 14 15 16 16 16 15 13 13 13 13 12 12 13 13 13 13 12 12 12 12 12 12 12 12 11 11 11 10 11 11 11 11 11 10 10 10 10 10 10 10 10 10 10 10 9 9 9 9 9 10 10 10 10 11 11 12 12 12 12 13 13 13 14 14 14 15 15 15
14 14 14 13 13 15 15 14 11 10 11 13 14 14 14 14 13 14 14 14 14 15 15 14 13 13 13 12 12 12 12 12 12 12 12 12 11 12 12 11 11 11 11 11 11 10 10 11 11 10 10 10 10 9 9 9 9 9 9 9 9 9 9 9 9 9 9 9 9 9 9 9 10 10 11 11 12 12 12 13 13 13 14 14 14 15
14 14 14 12 13 14 13 11 10 11 12 13 13 12 12 13 13 13 13 13 13 14 14 12 12 13 13 12 12 12 12 12 12 12 11 11 11 11 11 11 11 11 10 11 10 9 10 10 10 10 10 10 9 9 9 9 9 9 9 9 9 9 9 9 9 9 9 9 9 9 9 9 9 9 9 10 10 11 12 12 13 13 13 14 14 14
14 14 14 13 13 13 12 11 11 12 13 13 13 12 13 13 12 12 11 12 12 13 12 11 11 11 12 12 12 12 12 12 11 11 11 11 11 11 11 11 10 10 10 10 10 9 9 10 10 10 10 9 9 9 9 9 9 10 10 10 10 9 10 9 9 9 9 9 9 9 9 9 9 9 9 9 9 10 10 11 12 12 13 13 14 14
15 15 15 14 13 12 12 12 13 12 12 13 12 12 13 13 12 11 11 10 10 11 11 10 10 10 10 11 11 11 11 11 11 11 11 11 11 11 11 10 10 10 10 10 9 9 9 9 10 10 9 9 9 10 10 10 10 10 10 10 10 10 9 9 9 9 8 8 8 8 8 8 8 9 9 8 9 9 9 10 11 11 12 13 13 14
15 15 15 13 13 12 11 11 12 12 12 12 12 12 12 12 12 11 10 9 10 10 10 10 10 9 9 10 10 10 10 10 10 11 11 11 11 11 11 10 10 10 9 9 9 8 9 9 9 10 10 10 10 10 10 10 10 10 10 10 9 9 9 9 8 8 8 8 7 7 7 7 7 8 8 8 8 9 9 9 10 10 11 12 13 13
14 15 14 13 13 12 12 12 12 12 12 12 12 12 11 11 11 11 11 10 10 10 10 10 10 10 10 10 10 10 10 10 10 10 10 11 11 11 10 10 9 9 9 9 8 8 8 9 9 10 10 10 10 10 10 9 9 9 9 9 8 8 8 8 7 7 7 7 7 7 7 7 7 7 7 7 8 8 8 9 9 10 10 11 12 12
14 14 14 14 12 11 11 12 12 12 11 12 12 11 11 11 11 11 11 11 10 10 10 10 10 10 10 10 10 10 10 10 10 10 10 11 11 10 10 9 9 9 8 8 8 8 8 9 9 9 9 9 9 9 9 9 9 8 8 8 7 7 7 6 6 6 6 6 6 6 6 6 6 6 6 7 7 7 7 8 8 9 9 10 10 10
14 13 13 13 12 10 11 11 12 11 10 11 11 12 12 12 12 11 11 11 11 11 11 11 10 11 10 10 10 10 10 9 9 10 10 10 10 9 9 9 8 8 8 8 8 8 9 9 9 8 8 9 9 9 8 8 8 8 7 7 7 6 6 5 5 5 5 5 5 5 5 5 5 5 6 6 6 6 7 7 7 7 8 9 9 9
13 12 12 12 11 11 11 11 12 12 10 11 12 12 12 12 12 12 12 11 11 11 11 11 11 10 10 10 10 10 9 9 9 9 9 10 9 9 9 8 7 8 8 8 8 9 9 8 8 8 8 8 8 8 8 8 7 7 7 7 6 5 5 5 5 5 5 5 5 4 4 4 4 4 5 5 5 5 6 6 7 7 7 8 9 9
Height
732 741 744 741 737 730 727 725 723 721 718 715 713 713 712 714 713 703 695 684 680 699 709 707 711 712 711 706 699 695 698 706 707 708 709 708 716 725 730 735 738 742 745 745 746 747 749 750 750 752 753 755 757 760 763 767 770 772 774 777 780 783 786 788 790 792 794 796 798 799 801 803 804 806 808 810 812 813 815 816 817 818 818 819 819 819
731 743 740 730 728 723 720 720 720 720 718 717 717 717 711 707 707 697 690 683 681 698 706 703 709 709 707 705 698 695 701 708 709 710 711 709 712 720 727 733 737 740 742 743 746 746 748 749 748 749 751 752 754 758 762 765 768 771 774 777 780 783 786 789 791 793 795 797 798 801 803 806 807 809 810 811 812 814 815 816 817 818 819 819 819 819
738 740 731 722 719 718 717 715 718 722 722 721 720 722 716 702 700 697 687 681 682 698 706 703 709 711 704 701 698 695 697 703 705 706 709 709 710 717 726 733 738 741 743 743 745 745 746 746 746 748 749 750 753 757 761 764 768 771 775 779 781 784 787 790 793 794 797 799 801 804 806 807 808 809 810 812 813 814 816 817 818 819 819 820 820 820
741 733 722 717 714 717 719 713 713 719 722 723 721 725 720 702 701 704 693 684 683 696 705 703 707 709 704 700 697 694 693 695 700 703 705 705 708 716 725 731 736 740 743 744 745 744 744 744 745 747 749 751 754 758 763 767 769 773 778 781 783 786 789 792 795 797 800 802 805 808 808 808 808 809 811 813 814 815 816 817 819 819 820 821 821 821
730 718 710 712 713 714 718 716 716 722 725 724 722 723 719 706 701 701 696 691 691 701 707 709 718 715 707 706 700 695 693 693 698 703 705 704 707 717 724 728 733 736 740 742 743 742 742 743 744 746 750 753 757 762 768 772 773 777 781 783 785 788 791 794 796 800 802 804 809 812 810 809 810 811 813 814 815 816 817 818 819 820 821 822 822 822
718 707 703 710 711 707 714 721 722 728 731 727 722 718 715 709 703 697 697 701 711 721 712 715 740 733 709 705 701 697 696 695 699 704 706 705 708 719 724 727 731 735 739 743 746 747 743 742 744 748 753 757 763 768 774 778 779 782 786 785 787 789 792 796 797 800 802 803 809 813 811 811 812 813 814 815 816 816 817 818 819 820 821 822 823 823
710 703 701 705 706 705 714 723 721 723 733 732 717 710 711 710 708 703 701 708 723 730 712 712 742 742 719 708 702 700 699 698 702 706 705 703 708 720 727 731 734 735 740 746 752 752 745 744 748 755 761 764 768 774 778 781 782 785 788 787 787 789 792 794 796 799 802 802 806 811 813 813 814 814 815 816 816 817 817 818 819 820 821 822 823 823
707 705 703 702 707 713 720 724 717 716 730 730 709 703 709 709 711 709 705 710 716 720 715 710 725 738 730 713 701 699 702 703 704 705 705 702 707 722 729 733 737 736 738 744 749 748 747 751 757 763 768 767 768 774 777 778 780 782 784 784 785 788 790 793 795 797 800 801 803 810 814 814 814 814 815 816 816 817 817 818 819 819 820 821 822 823
703 708 708 706 713 718 720 717 711 711 722 719 703 698 701 703 707 705 704 708 708 720 732 719 717 736 736 711 696 697 703 707 706 704 706 704 710 726 729 729 734 734 735 739 744 748 752 757 759 763 769 770 769 770 772 774 776 778 779 781 783 786 789 791 793 795 797 798 801 810 816 815 814 814 815 815 816 816 817 818 818 819 819 820 821 822
700 703 704 707 714 716 713 708 703 707 713 708 702 700 697 698 702 703 707 710 714 731 742 726 716 734 738 713 699 703 707 707 704 703 704 705 714 726 726 726 730 731 734 739 743 750 754 755 757 761 766 772 776 774 773 774 775 776 778 780 781 783 786 789 792 794 795 794 798 808 814 814 813 814 815 815 815 816 817 818 818 818 819 819 820 821
697 693 696 703 708 707 704 702 699 701 703 701 702 704 702 697 697 705 708 710 728 744 738 722 713 729 741 720 700 703 704 701 702 703 703 708 718 725 725 725 726 729 735 739 744 750 752 755 759 762 763 769 777 780 779 777 775 774 775 777 778 779 781 785 789 792 793 793 798 804 809 811 812 814 814 814 815 816 817 817 818 818 818 819 820 821
699 698 699 699 698 699 701 700 696 692 694 700 704 708 714 710 705 715 716 717 741 749 730 714 709 724 743 728 705 699 697 696 700 703 704 711 720 723 724 726 726 729 733 739 748 751 752 758 762 764 764 766 773 782 785 782 779 777 775 775 776 777 779 781 785 788 790 793 798 802 805 809 811 813 813 814 815 815 816 817 817 817 818 818 820 821
705 701 699 700 697 696 702 705 700 694 695 703 706 714 731 732 728 735 733 731 743 739 719 707 707 724 735 722 708 704 703 700 697 700 706 712 720 723 724 727 729 730 734 742 750 751 751 756 759 762 765 767 770 778 785 785 782 781 778 776 776 777 779 781 783 785 786 791 796 799 802 806 809 811 813 814 815 816 816 817 817 817 817 818 819 820
715 706 697 701 701 695 700 708 710 707 704 709 709 717 735 742 747 753 745 740 742 730 711 701 710 731 734 718 707 705 708 707 701 703 710 713 720 724 725 731 736 735 734 742 748 748 749 751 754 759 765 769 770 774 781 783 780 780 779 777 777 778 780 782 784 785 786 790 793 796 799 802 806 809 812 814 815 816 816 816 816 816 817 818 819 820
723 721 704 700 701 696 699 701 701 701 703 707 702 706 723 731 741 752 746 744 744 730 714 709 719 735 735 720 708 704 705 707 707 709 712 715 720 723 725 733 744 742 737 741 745 745 747 749 754 761 767 771 773 774 778 780 778 777 777 777 777 779 781 783 785 787 789 791 793 795 797 800 804 806 809 812 813 815 815 815 816 816 817 818 819 819
717 716 696 690 691 691 698 695 690 696 704 702 695 704 719 716 719 734 737 735 737 735 726 721 724 725 723 717 706 705 708 708 712 714 714 721 723 723 727 733 741 742 737 739 743 745 748 752 759 765 767 771 773 775 777 779 779 777 776 776 776 778 781 784 786 789 791 793 794 796 797 799 801 803 806 809 811 813 814 815 815 815 816 817 818 819
716 711 688 685 689 685 691 692 687 696 708 705 702 707 707 697 703 728 738 727 731 745 738 728 732 727 723 722 710 707 713 713 716 718 720 728 729 728 731 731 734 736 736 741 744 746 751 756 760 764 767 770 772 773 775 780 784 781 778 777 777 778 780 783 786 789 792 794 795 796 797 798 800 801 804 806 809 811 812 814 814 815 816 817 818 819
711 715 694 686 693 686 681 687 686 685 694 705 710 703 694 693 699 719 739 738 740 750 736 725 738 740 735 733 718 712 719 719 720 725 729 734 735 735 735 733 734 735 738 744 747 751 756 759 760 763 768 771 773 775 775 779 785 785 783 781 779 780 781 784 787 790 792 793 794 795 795 796 798 800 802 804 807 810 811 813 814 814 815 816 818 819
702 719 708 689 691 686 677 687 695 686 682 692 698 694 701 718 719 717 734 744 746 753 740 722 728 738 738 732 720 718 724 724 726 734 739 739 739 739 739 738 738 739 743 748 752 756 759 762 764 767 772 774 774 778 778 780 786 788 787 786 784 783 784 786 789 791 793 794 794 795 795 796 798 799 801 803 806 809 810 812 813 814 815 816 817 818
698 716 720 698 685 685 685 694 704 699 687 686 691 693 700 714 720 718 726 730 736 751 748 727 727 742 742 728 720 723 727 729 733 739 743 743 741 742 744 745 745 745 748 752 755 759 761 765 769 772 774 774 774 778 780 783 789 789 790 789 786 785 786 788 791 792 794 794 795 795 795 796 797 799 801 803 805 807 810 811 813 813 815 816 817 817
701 715 725 707 686 690 698 698 701 702 697 696 702 706 704 706 713 719 720 717 721 740 744 737 744 754 745 730 726 729 734 738 740 744 749 748 746 747 748 748 749 749 750 752 755 761 765 767 769 772 774 774 775 779 782 786 790 790 791 790 788 787 788 790 792 793 794 794 795 796 796 797 798 800 802 803 804 806 809 811 812 813 815 816 816 817
703 714 723 717 705 705 702 689 686 691 693 696 701 704 704 707 715 727 732 722 716 726 735 745 762 761 745 733 730 735 745 748 745 748 755 757 757 758 757 756 757 754 752 753 755 760 766 767 769 772 774 775 777 780 783 786 788 789 790 790 788 788 789 790 792 793 794 795 796 797 797 798 799 801 802 803 804 806 808 810 812 814 815 815 816 816
700 709 719 720 713 709 700 688 686 687 685 686 691 694 696 701 709 725 737 730 719 721 724 739 762 763 747 736 732 738 748 753 750 748 752 757 759 760 762 764 765 760 755 756 758 761 765 767 769 771 773 776 779 781 783 784 785 787 788 788 788 788 789 790 791 793 795 796 797 797 798 799 799 800 801 802 804 806 807 810 812 814 815 815 816 816
701 711 722 727 723 714 704 696 690 685 685 690 692 691 695 701 702 708 716 718 722 728 727 739 763 765 750 739 734 738 744 749 753 750 749 753 754 754 757 760 762 760 757 758 760 763 765 766 768 770 772 775 778 780 782 783 784 786 787 787 788 789 790 790 791 792 794 796 797 797 798 798 798 799 801 803 805 806 807 810 812 814 815 815 815 815
711 719 725 738 744 738 730 723 712 705 706 709 705 697 695 696 698 704 706 711 726 730 725 742 766 764 749 740 738 742 746 749 753 752 752 754 756 757 757 757 759 760 759 759 761 763 764 766 768 770 773 776 778 779 781 783 784 785 786 787 788 789 790 791 791 791 792 795 796 796 797 798 798 799 801 803 805 806 808 810 812 814 814 814 815 815
718 723 724 735 743 745 750 747 737 732 727 721 715 708 701 694 698 709 714 721 734 730 725 745 763 759 748 743 745 751 755 757 756 756 757 758 759 761 761 761 762 762 762 763 764 765 765 768 770 771 775 779 779 780 781 783 784 785 786 787 788 789 790 790 791 791 793 794 795 796 797 797 799 800 801 803 805 807 808 810 812 813 814 814 814 815
717 721 722 729 734 741 750 745 735 734 734 731 726 721 716 706 700 708 719 729 734 732 739 751 754 755 753 749 753 761 764 766 765 765 765 763 763 764 764 765 765 765 766 767 767 768 769 770 772 773 777 779 780 782 783 784 785 785 786 787 789 789 789 790 791 792 794 794 795 796 797 798 799 801 802 804 805 807 808 810 811 812 812 813 813 814
719 723 722 726 729 731 736 736 735 736 737 738 735 729 726 721 715 716 722 726 727 736 752 752 746 754 758 753 758 764 764 767 768 767 767 764 764 766 767 768 769 769 770 771 771 773 773 774 775 775 778 780 781 783 784 785 786 786 787 788 789 790 790 791 792 793 794 794 795 797 798 799 801 802 803 805 806 807 808 809 810 811 811 812 813 814
718 723 720 724 727 723 724 730 734 736 737 739 740 735 730 732 737 737 730 723 723 737 750 747 746 756 758 757 763 763 762 765 765 763 763 763 764 766 767 770 772 773 774 775 776 777 777 778 777 777 778 779 780 782 783 785 786 786 787 788 789 790 791 793 793 794 795 795 796 798 799 800 802 803 804 805 806 807 808 808 809 810 811 812 813 815
716 722 717 720 727 723 721 725 728 732 735 737 740 740 735 737 747 753 751 741 732 735 742 743 751 761 761 762 765 764 763 764 763 763 763 764 765 766 768 771 773 775 777 778 779 780 782 783 782 781 781 780 781 782 783 784 785 787 788 789 791 792 793 795 796 796 797 797 798 799 800 801 802 803 804 805 806 807 808 808 809 809 811 812 813 814
719 725 720 718 728 727 721 723 726 729 734 738 741 741 739 744 749 752 761 764 752 745 747 750 759 765 764 763 765 766 767 765 765 767 767 767 767 767 771 774 775 777 779 780 783 785 788 789 789 788 787 787 787 787 787 787 787 788 789 790 792 794 795 797 797 798 799 799 800 800 801 802 803 803 804 804 806 807 807 808 808 809 810 811 811 812
725 726 724 724 734 733 724 725 728 728 733 739 742 741 741 748 752 749 755 765 764 760 760 763 768 769 765 765 767 769 770 770 771 770 770 771 771 771 776 779 780 782 783 785 789 792 795 797 796 796 795 795 794 793 793 792 790 791 792 792 793 795 796 797 798 799 800 800 802 802 802 804 804 804 805 805 805 806 807 808 808 809 810 810 810 811
739 734 730 732 740 738 727 725 728 734 744 748 746 743 739 742 750 751 751 756 759 761 763 763 764 765 764 765 769 772 774 775 776 777 778 779 777 779 785 789 791 792 793 795 798 800 802 803 803 803 802 801 801 799 799 798 796 796 796 796 796 797 797 798 798 800 801 801 803 803 803 805 804 804 805 805 805 806 806 807 807 808 809 809 809 810
747 741 736 735 740 742 737 732 733 744 757 758 750 743 737 737 745 751 754 753 753 758 760 755 754 758 761 763 769 775 777 779 783 786 787 788 789 792 796 799 802 804 804 807 808 809 809 809 808 808 807 806 806 805 804 804 803 802 801 800 800 799 799 800 801 803 804 804 805 805 805 806 805 805 806 805 805 805 806 807 807 807 808 808 808 809
742 740 740 740 741 745 748 749 754 760 762 757 750 743 738 738 742 747 752 752 750 754 757 755 755 757 758 761 769 776 780 783 787 791 793 795 798 800 802 806 810 812 814 816 817 817 816 815 814 813 811 811 811 810 810 809 808 807 806 805 804 803 802 803 804 806 807 808 808 808 808 808 807 807 807 806 806 806 806 806 807 807 808 808 809 809
737 738 741 745 749 753 754 758 766 769 761 754 752 748 746 748 750 752 758 756 751 752 754 755 757 758 758 764 772 779 784 788 792 797 801 802 804 805 808 813 815 817 819 820 820 821 821 820 819 818 817 816 815 814 814 814 813 812 810 808 807 807 806 807 808 809 810 810 811 810 810 809 809 809 809 808 807 807 807 807 807 807 807 808 809 809
732 740 744 750 757 757 754 759 767 770 766 763 761 757 756 759 759 759 764 763 754 751 754 757 763 768 770 774 779 783 788 792 799 806 807 807 809 811 813 816 817 819 820 820 821 822 822 822 822 821 821 820 819 818 818 817 817 815 813 812 812 811 811 811 811 812 813 813 813 812 812 811 810 810 810 810 809 809 808 807 807 806 806 807 807 808
727 736 741 747 753 751 750 759 767 771 775 776 773 767 761 760 757 755 762 770 764 758 760 764 770 777 781 783 785 787 789 796 805 810 809 810 812 813 815 817 817 818 820 821 822 822 822 822 822 822 822 821 821 821 820 820 820 819 817 816 815 815 814 814 814 815 815 815 814 814 814 813 813 813 813 812 811 810 809 808 807 806 805 805 806 806
724 727 731 738 744 745 749 758 766 774 781 779 776 774 767 763 760 756 764 776 774 766 766 769 775 781 784 787 789 789 792 800 806 807 807 809 810 812 814 815 816 817 818 819 820 821 821 821 821 821 822 822 822 822 822 822 822 821 819 818 818 818 817 816 816 817 816 816 815 815 816 816 816 816 815 814 813 812 810 809 807 806 805 805 804 804
731 730 733 739 743 744 747 756 768 780 784 779 774 773 770 766 764 765 774 780 775 768 768 771 776 781 783 786 789 789 792 797 800 801 803 806 808 811 812 813 815 816 817 818 819 819 819 819 820 820 821 821 822 822 822 822 822 821 820 819 819 819 818 818 818 817 817 817 817 818 819 818 818 817 816 815 814 812 811 809 808 807 805 804 804 803
744 739 738 739 743 746 748 758 774 784 785 781 776 771 769 768 770 775 781 777 769 767 769 773 778 783 785 788 791 791 792 793 796 800 804 806 809 811 812 814 815 815 817 818 819 819 819 819 820 820 821 821 822 821 822 822 821 821 820 820 820 819 819 819 818 818 818 818 818 818 818 818 818 817 815 814 813 811 810 809 807 806 805 804 803 802
753 749 745 746 750 750 747 756 775 788 788 783 777 769 766 770 777 781 779 772 767 768 772 777 784 788 789 792 794 796 796 797 799 804 807 810 812 813 814 815 816 816 818 818 819 819 820 819 820 820 821 821 822 821 821 821 821 821 821 821 821 820 820 819 819 818 818 818 818 817 817 817 816 815 814 813 811 810 808 807 807 805 804 803 802 800
756 756 757 762 762 755 753 764 781 792 789 779 774 773 772 774 779 781 778 776 776 776 777 783 788 790 792 795 797 799 801 802 805 808 811 813 814 814 815 816 816 817 818 817 818 820 820 819 820 820 821 821 821 822 822 822 822 822 822 822 821 821 821 820 819 818 818 817 817 816 816 816 815 813 812 811 809 808 806 805 805 804 802 801 800 799
759 759 763 770 768 762 769 783 791 791 786 779 778 782 782 780 780 781 781 783 784 783 785 790 793 793 794 797 800 802 804 806 808 811 813 815 815 816 816 817 817 817 818 818 819 819 819 819 820 820 821 821 821 822 822 822 822 822 822 822 821 821 820 819 819 818 817 817 816 815 815 814 813 812 811 809 808 807 805 803 803 801 800 799 798 797
763 763 765 770 771 771 778 787 788 785 783 782 783 785 784 783 785 787 788 789 789 789 792 796 799 799 799 800 803 805 807 809 811 813 814 815 816 816 817 817 818 818 819 819 819 820 820 820 820 820 821 821 821 821 821 821 821 821 820 820 820 820 819 818 818 817 817 816 815 814 814 813 812 811 810 809 808 806 804 802 801 799 798 797 796 795
763 761 762 768 775 777 781 784 784 785 786 786 787 788 787 787 790 792 794 797 798 798 799 801 804 805 805 805 807 809 811 812 814 815 816 816 817 817 817 818 819 819 819 819 820 821 821 820 820 820 821 821 821 820 820 820 820 820 819 819 819 818 818 817 817 816 816 815 814 814 813 812 811 810 809 808 807 805 803 802 800 798 797 795 794 794
762 762 764 771 776 780 786 788 787 789 791 790 790 793 793 793 795 796 799 802 803 803 805 806 807 809 810 811 812 813 815 816 816 817 816 816 817 817 818 819 819 820 820 820 821 821 821 820 820 820 820 820 819 819 819 820 819 819 819 819 818 818 817 817 816 815 815 814 814 813 812 811 810 809 807 806 805 803 802 800 799 797 796 794 793 792
766 764 766 772 777 780 785 788 788 790 792 791 792 795 796 797 799 800 801 804 805 806 808 809 810 812 813 814 815 816 817 818 819 818 817 817 817 817 818 820 820 821 821 821 821 822 821 820 820 820 820 820 819 819 820 820 820 820 820 819 819 818 817 817 816 816 815 814 813 813 811 810 809 808 806 804 803 801 800 798 797 796 794 793 792 790
768 768 768 773 781 787 787 788 789 792 793 793 794 797 798 799 801 802 803 805 806 808 809 810 812 813 814 816 816 816 817 818 819 819 818 816 817 818 820 821 821 822 822 822 822 822 821 820 820 820 821 820 820 820 820 820 820 820 820 819 819 818 818 817 817 816 815 814 813 812 811 810 809 807 806 804 802 800 798 797 796 795 793 791 790 789
772 776 774 774 783 790 791 791 791 793 797 798 796 797 799 799 800 802 803 804 806 808 808 809 811 813 814 816 817 816 817 818 819 819 818 817 818 820 821 821 822 822 822 822 821 820 820 820 820 821 822 821 821 821 821 821 820 820 820 820 819 818 818 817 816 816 815 814 813 812 811 809 808 807 806 804 802 799 797 795 794 793 791 789 787 787
779 782 781 781 785 789 791 791 789 791 797 799 796 797 798 798 799 801 802 804 807 808 808 809 810 812 813 816 817 817 818 818 819 819 819 818 819 820 821 822 823 823 822 822 821 820 820 821 822 822 821 821 821 821 821 821 821 820 820 819 818 818 818 817 816 815 814 813 812 811 810 809 808 807 805 804 802 799 797 794 791 790 789 787 786 784
Wind_Speed
9 7 8 9 10 12 14 15 15 16 18 18 13 11 13 11 11 14 16 14 15 15 14 15 15 15 15 17 12 9 12 9 11 10 9 9 11 13 16 15 13 13 11 12 14 16 16 14 15 20 23 22 23 26 26 24 24 24 22 21 17 17 21 21 20 19 18 18 16 14 11 9 8 8 7 7 6 6 5 5 6 6 6 7 7 8
9 9 10 12 14 15 15 15 14 16 17 16 13 13 13 12 11 14 16 14 13 11 10 14 14 14 13 14 15 12 14 12 11 10 9 11 10 12 16 14 9 7 8 11 12 16 18 16 16 18 21 23 24 25 25 24 24 25 24 21 18 18 20 20 19 17 16 15 13 12 10 11 11 10 10 8 6 6 5 5 6 6 6 6 6 6
9 10 12 15 14 14 15 14 14 15 15 13 10 11 11 9 10 12 15 15 12 8 7 13 13 13 13 14 15 13 12 13 12 13 10 11 12 10 14 10 6 5 7 10 12 15 17 17 16 16 19 22 23 23 23 23 23 24 25 22 20 19 18 17 18 17 14 10 8 11 12 13 12 10 11 9 6 6 6 5 5 5 6 6 6 7
8 10 15 16 14 13 14 14 14 12 11 10 9 9 9 8 9 9 10 13 9 6 4 9 9 9 11 13 14 13 12 11 13 14 11 12 11 10 16 12 10 11 10 10 12 12 14 16 16 16 16 17 19 20 21 21 21 22 24 23 20 19 17 18 19 16 12 10 8 8 12 14 12 12 13 10 8 8 8 7 6 6 5 5 5 6
10 12 14 15 15 17 14 10 8 7 7 9 11 11 9 10 12 8 5 6 5 7 3 7 7 7 10 14 12 10 13 11 14 14 13 14 9 13 17 13 11 11 8 7 8 10 12 14 16 17 15 15 16 16 15 13 15 21 22 21 20 17 17 19 18 13 12 15 11 7 12 15 12 12 11 10 10 9 8 8 7 6 6 5 5 5
13 11 10 15 18 18 12 7 7 7 7 8 12 15 15 15 16 11 8 9 4 5 8 7 7 7 9 14 12 9 13 11 11 12 14 15 10 15 14 11 10 9 7 3 5 8 11 14 16 15 13 12 11 12 14 12 15 20 18 18 17 14 17 19 17 15 15 19 14 6 10 14 11 11 10 9 10 9 9 9 8 7 6 6 6 5
9 11 11 14 13 11 9 8 12 12 8 8 11 15 19 19 19 17 9 8 5 4 7 9 8 7 7 12 11 10 13 11 11 13 14 14 11 13 9 7 6 7 8 7 9 12 13 11 8 6 9 16 21 20 20 21 21 20 16 15 16 15 19 22 20 18 18 21 15 4 6 11 10 10 11 9 9 8 8 9 8 7 7 6 6 6
8 13 12 9 5 5 7 9 12 13 9 8 10 14 18 20 19 19 13 8 6 5 6 8 9 8 6 10 13 14 15 13 15 15 13 13 9 13 12 7 3 7 8 10 12 11 6 6 13 13 13 19 23 22 24 27 27 24 20 19 19 20 24 24 22 21 19 20 14 1 6 9 11 9 11 9 8 8 8 8 7 7 7 6 6 6
9 11 9 8 8 7 9 10 12 14 11 10 14 14 13 15 17 16 12 7 6 5 6 8 10 8 6 9 12 14 15 14 16 14 13 14 8 14 14 10 9 10 9 8 5 5 9 17 22 19 16 14 18 23 26 29 30 28 25 25 25 24 25 25 22 21 19 18 15 2 15 7 11 10 10 10 8 9 8 7 7 7 7 6 6 6
8 9 9 9 9 8 10 13 13 14 11 11 15 15 13 13 14 12 8 5 5 5 6 9 10 7 6 8 8 9 11 13 13 12 13 11 8 12 12 11 12 10 8 5 7 13 14 20 25 25 21 14 12 19 26 27 29 30 28 29 29 27 25 25 23 22 22 20 18 9 12 6 12 11 10 10 9 9 8 6 6 6 6 5 5 6
8 10 10 9 8 9 12 13 14 15 13 12 13 13 13 11 11 9 7 6 6 6 8 12 10 6 6 7 7 8 9 9 8 9 12 9 12 11 7 7 10 11 9 6 11 12 12 19 25 25 23 17 10 9 18 24 28 31 32 32 32 32 30 28 25 24 24 21 18 16 8 7 11 10 10 11 9 9 8 7 6 6 6 6 6 5
12 10 7 7 9 11 13 11 12 15 14 11 9 7 8 7 7 7 7 7 6 6 9 13 13 10 7 5 3 2 4 9 10 8 10 11 13 10 7 5 7 8 7 8 11 7 8 16 20 22 23 19 11 4 9 20 24 24 28 32 31 32 32 30 29 27 25 22 19 18 11 8 10 10 10 10 9 9 8 7 7 6 6 6 6 6
12 10 8 8 10 13 12 9 8 8 10 9 7 6 6 6 6 6 7 7 6 7 9 12 12 9 6 2 3 6 6 4 7 7 6 8 12 10 8 8 5 6 8 10 7 4 5 10 15 20 22 20 18 13 12 19 27 25 26 30 30 30 30 29 30 30 30 27 24 20 16 12 11 10 9 9 9 9 8 7 7 6 7 7 7 7
8 9 12 11 10 12 12 8 6 6 7 9 8 7 6 6 5 6 6 6 6 8 9 8 5 3 4 4 6 9 10 11 6 10 6 4 9 10 9 8 4 5 9 12 9 6 5 9 12 18 21 19 21 22 21 23 31 31 29 31 30 28 28 28 30 31 32 31 27 24 21 18 15 12 10 9 8 8 7 6 6 6 7 7 7 8
8 8 11 12 8 11 13 12 9 6 8 10 9 8 7 6 6 5 5 5 4 6 8 8 4 2 4 5 8 8 9 9 10 10 7 5 7 8 8 9 6 6 8 11 10 7 7 11 12 13 18 19 21 23 23 22 25 29 30 31 30 28 28 29 30 29 29 29 26 24 22 20 17 15 13 11 9 8 7 6 5 5 7 8 8 8
10 8 9 13 11 12 15 14 12 9 7 8 8 8 6 5 5 3 3 3 1 4 5 5 2 1 4 4 5 6 8 10 9 8 8 8 7 5 7 10 9 7 8 9 10 9 11 13 13 11 15 19 20 20 18 14 16 24 28 28 29 29 29 30 29 27 27 26 23 21 22 21 18 17 15 13 11 8 7 6 5 5 7 9 9 8
8 8 8 14 14 14 15 13 13 10 5 3 7 9 8 8 6 3 2 2 1 3 3 2 1 3 5 4 4 7 8 9 9 7 8 10 10 7 5 8 8 6 8 10 10 11 12 12 12 10 10 15 18 18 16 12 12 18 23 25 28 29 29 30 28 26 25 23 19 19 21 20 19 17 16 15 13 9 8 7 6 7 8 9 9 8
5 6 6 9 13 14 13 12 14 13 8 5 5 5 6 9 7 3 2 2 3 5 4 5 5 4 4 4 7 10 9 8 9 10 11 11 9 8 6 5 6 7 10 13 12 11 11 10 9 5 2 8 14 14 15 15 12 13 16 20 24 26 27 27 25 23 22 20 19 20 21 21 20 17 16 16 14 10 9 8 8 9 9 9 10 9
6 5 6 11 13 12 11 11 11 13 13 9 3 0 3 6 5 4 3 3 5 5 4 7 9 4 1 2 7 11 10 9 11 13 13 10 6 6 6 7 9 10 11 11 11 9 9 9 9 5 2 7 14 12 11 10 8 9 12 14 17 20 22 22 20 18 19 19 20 21 22 23 21 17 16 17 14 11 10 9 9 9 9 10 10 9
4 4 4 10 12 10 9 8 7 7 11 10 5 3 4 4 3 2 2 3 5 4 4 8 8 3 4 5 2 8 11 10 9 11 12 8 5 5 6 6 7 7 7 8 10 8 8 10 12 10 6 11 16 14 11 9 8 11 12 10 13 16 17 17 16 16 17 18 21 21 21 22 20 17 16 16 14 12 11 10 10 10 10 10 10 9
2 2 2 6 9 8 7 7 8 7 7 7 6 6 6 3 2 4 3 3 5 4 3 5 2 3 4 6 6 10 12 9 7 10 10 6 5 6 6 5 4 3 3 6 10 10 9 11 13 11 10 15 16 14 14 12 10 12 12 11 12 14 13 13 13 14 15 17 20 20 19 20 19 16 16 15 14 11 11 11 11 10 10 10 10 9
3 3 3 4 5 6 6 6 9 10 9 8 6 7 8 5 4 5 4 3 5 4 2 1 1 3 3 5 5 10 10 5 6 10 10 7 7 5 1 1 2 2 3 7 10 12 11 11 14 16 17 18 18 16 16 14 11 11 12 13 14 15 16 15 15 14 14 15 17 17 18 19 18 16 15 14 13 11 11 12 12 11 11 10 10 9
0 3 4 6 4 6 10 8 7 10 13 12 8 6 7 6 6 6 4 3 4 3 2 2 3 2 2 4 4 11 11 6 5 8 11 10 10 11 10 8 5 3 6 9 9 10 11 12 14 17 18 18 16 14 13 13 12 11 10 10 12 13 15 16 16 15 14 15 15 15 17 18 17 16 15 13 12 12 12 13 12 12 11 10 10 9
1 2 4 4 3 7 11 13 12 11 8 9 7 5 5 5 6 6 4 3 1 2 2 2 3 2 1 4 3 11 13 9 6 6 10 11 8 10 12 11 9 7 8 10 9 8 10 13 14 15 15 15 13 11 10 11 11 8 7 7 9 10 12 14 17 17 17 16 15 14 16 17 17 17 15 13 12 12 13 13 12 12 11 10 10 9
1 2 2 3 2 3 5 7 8 7 8 5 6 7 9 8 5 4 4 3 2 4 5 1 2 3 1 0 5 12 12 10 9 7 9 10 8 8 9 8 9 9 9 11 11 9 9 11 12 13 13 11 10 10 10 10 9 7 7 7 8 9 11 13 15 16 16 16 14 14 15 17 16 16 15 12 11 12 12 13 13 12 11 10 10 9
1 1 1 4 5 5 2 2 3 2 6 6 9 11 12 12 7 3 2 4 4 3 3 1 2 5 5 5 9 12 10 9 9 8 8 9 9 9 8 8 8 9 10 12 11 9 9 9 11 15 15 11 9 10 10 10 9 8 7 8 8 8 9 10 11 12 13 14 14 13 14 14 14 14 14 12 12 12 12 12 12 12 12 11 10 9
1 0 0 3 2 2 2 1 3 4 6 7 12 16 15 11 8 5 4 4 3 1 1 2 6 8 8 9 10 11 8 6 6 6 6 8 9 9 9 9 9 9 11 12 10 10 10 9 10 14 16 13 11 11 11 10 10 10 11 10 7 7 8 9 9 10 11 11 12 12 13 13 13 14 14 13 12 13 13 12 12 12 12 12 11 9
1 3 2 2 2 4 6 4 4 4 6 10 13 14 16 15 11 6 6 5 3 2 1 5 11 11 9 9 10 11 10 7 6 6 7 9 10 9 10 11 12 12 12 12 11 11 11 10 9 12 15 16 14 13 12 12 11 12 13 12 10 8 9 8 8 8 9 10 10 10 10 11 11 12 13 12 12 12 12 13 13 12 12 11 11 10
4 6 4 4 6 6 5 6 5 3 1 6 9 10 12 15 15 12 8 5 2 2 3 8 13 12 10 11 11 10 10 9 8 8 9 10 10 10 11 12 13 13 13 13 12 13 13 12 9 9 13 15 15 15 14 13 12 12 12 12 11 9 9 9 9 10 10 9 9 8 7 8 8 9 10 11 11 10 11 12 12 12 11 10 10 10
4 5 5 6 7 8 7 6 6 7 7 7 5 6 7 10 11 10 11 11 5 10 11 12 15 13 9 11 12 11 10 9 9 7 8 9 9 10 12 12 12 13 13 13 13 13 13 13 13 15 16 15 15 15 14 13 13 12 12 12 10 9 9 9 10 11 10 9 8 7 6 6 6 7 8 9 9 9 10 10 9 10 9 7 8 9
3 1 3 5 4 6 7 5 6 7 8 9 9 9 6 6 7 5 6 9 6 10 13 11 12 10 8 9 11 11 9 9 10 9 8 7 7 9 11 11 11 12 12 13 14 14 15 15 16 18 20 20 19 19 17 14 12 12 12 12 12 11 10 10 10 10 9 9 7 6 6 5 5 6 7 7 6 7 8 8 8 9 8 7 9 11
4 0 1 4 4 4 5 6 5 5 5 8 9 10 10 6 3 5 6 4 2 6 11 10 6 6 7 9 10 10 10 10 11 11 9 7 7 10 12 12 12 12 12 13 15 17 16 16 17 20 21 22 22 23 23 21 16 15 13 10 11 11 9 9 9 8 8 7 6 6 6 4 4 6 5 4 4 5 6 7 7 8 8 9 12 13
5 2 1 3 4 3 5 7 6 4 4 5 4 5 9 7 5 4 5 7 4 5 6 5 6 8 9 9 10 11 11 11 11 10 9 8 10 13 15 15 15 14 14 15 16 15 14 15 16 19 20 21 22 22 24 25 23 18 15 14 12 9 8 9 10 9 8 8 6 5 5 4 4 5 5 4 4 3 4 5 6 6 7 8 9 12
5 4 1 2 3 2 3 3 5 6 3 2 3 7 7 3 8 6 5 7 6 5 4 5 8 11 11 11 12 12 12 12 13 12 12 11 11 14 16 16 16 15 15 14 14 14 14 15 17 19 21 22 23 23 23 24 24 23 21 21 21 18 13 11 12 12 12 11 10 9 8 7 6 5 4 3 3 3 3 5 5 6 6 7 8 11
4 2 1 1 1 1 5 5 3 5 2 2 4 8 8 3 4 5 6 7 7 10 10 10 11 12 12 13 14 14 14 15 15 15 14 12 11 12 14 14 14 12 11 10 10 11 14 16 17 18 20 21 21 22 22 23 22 22 22 22 22 23 22 17 15 16 17 17 16 15 14 12 10 9 7 4 2 1 3 4 6 7 8 8 10 12
3 0 2 1 2 2 1 1 1 1 2 3 6 9 9 6 2 4 6 5 6 8 9 10 11 11 12 14 15 15 15 15 14 13 13 12 12 11 12 11 10 9 8 7 7 8 11 13 15 15 16 17 19 20 20 22 22 20 21 23 22 22 23 21 19 19 20 21 20 19 18 17 15 13 11 9 7 5 5 4 5 6 7 8 10 12
5 2 1 2 1 1 2 2 1 1 2 3 6 8 7 5 3 2 2 3 3 5 7 9 12 13 13 15 16 16 15 13 11 9 9 10 11 11 10 9 9 10 9 8 9 9 9 8 8 10 12 13 16 17 16 17 19 18 19 19 19 19 20 18 17 18 18 18 19 19 18 18 18 17 15 13 11 10 9 7 6 6 6 7 9 11
3 3 3 3 3 3 3 2 1 1 0 2 6 9 8 6 7 6 1 3 4 4 7 11 13 13 13 14 15 14 11 9 7 5 7 10 10 11 11 11 11 12 10 8 8 8 7 7 5 5 7 8 10 12 12 11 12 13 13 13 12 13 14 13 13 14 14 15 16 16 16 16 16 17 16 15 14 14 12 11 10 10 9 8 9 10
4 3 4 4 3 3 3 2 1 0 1 2 4 7 9 9 9 6 1 2 3 3 8 12 13 12 11 12 12 10 7 6 6 6 8 10 11 11 11 11 12 12 11 10 9 8 7 7 8 6 4 4 5 7 8 7 7 7 8 10 11 10 10 10 11 11 11 12 12 13 14 14 14 14 14 14 14 14 14 13 12 12 13 12 12 12
3 1 2 5 4 3 3 2 1 2 3 5 6 5 7 9 8 5 2 2 1 4 9 11 11 11 10 11 10 6 4 5 7 8 10 10 11 11 10 10 11 11 10 8 6 4 5 6 6 6 4 4 4 4 5 5 6 7 7 8 9 9 10 11 12 11 11 10 10 11 13 14 15 15 14 13 14 14 14 14 14 14 15 15 16 15
2 2 2 4 3 3 3 1 2 3 2 7 8 6 5 7 5 1 2 1 3 8 10 9 10 10 9 8 6 4 5 8 10 10 10 10 9 9 9 9 9 8 9 8 5 5 5 4 4 4 4 4 4 5 5 5 6 6 7 7 8 9 11 12 12 12 12 11 11 11 13 15 16 16 15 15 16 16 16 16 16 16 17 17 17 17
5 4 3 4 4 3 3 1 3 4 1 7 9 6 6 4 1 4 4 4 5 9 11 11 13 12 11 11 9 8 9 11 11 11 10 8 8 7 8 8 7 7 8 7 6 6 6 4 4 4 4 4 4 4 5 6 6 6 7 8 8 9 11 12 13 13 13 13 13 13 14 15 16 17 18 18 18 19 19 19 18 18 18 19 19 19
5 4 3 4 4 3 2 2 2 4 4 8 8 5 6 4 5 6 6 8 10 9 10 12 12 10 11 12 11 10 11 11 10 10 8 7 7 6 6 6 6 6 6 5 6 7 6 4 4 5 4 4 4 4 5 5 5 5 6 7 6 8 9 10 10 11 11 12 13 14 15 16 17 18 18 19 19 20 21 21 20 20 20 20 21 21
5 5 3 4 4 3 2 4 2 3 5 7 6 4 5 7 7 7 7 8 9 9 10 10 9 8 10 11 10 10 10 9 8 8 7 6 5 5 5 5 5 5 5 5 6 7 6 5 4 4 4 4 4 4 4 3 3 4 5 5 6 7 8 9 9 10 11 12 12 13 14 15 16 18 19 20 21 21 22 22 21 22 21 22 22 22
6 5 3 4 5 5 5 5 4 4 5 7 7 6 5 8 11 11 10 9 7 8 8 8 9 10 9 9 9 8 7 7 7 6 4 5 5 4 4 5 5 4 4 4 5 6 6 4 3 3 3 4 4 3 2 2 3 4 6 6 8 9 9 10 11 12 13 13 13 14 15 15 16 16 17 18 20 21 22 22 21 21 22 21 22 22
6 4 2 4 6 7 7 6 6 7 7 8 9 8 7 8 10 11 11 10 9 9 9 8 9 10 10 7 7 7 6 5 5 4 3 4 4 3 3 4 5 4 4 4 5 5 5 4 2 2 2 2 2 3 3 4 5 7 8 8 10 11 12 13 14 14 15 15 15 16 16 16 17 16 16 17 18 19 20 21 21 22 22 21 21 22
6 4 2 4 4 2 4 6 7 7 7 7 7 8 8 9 10 10 9 9 8 9 10 9 9 9 7 6 6 5 4 3 3 2 3 3 3 4 4 5 5 4 4 4 4 4 4 4 2 2 2 3 4 4 5 7 7 9 10 11 12 13 14 15 15 16 16 16 17 17 18 18 19 19 19 19 19 19 19 19 20 21 22 21 21 22
3 5 3 4 3 2 5 8 7 7 7 6 6 6 7 8 9 9 8 9 8 9 8 7 7 6 5 4 4 3 4 4 3 1 1 2 2 3 5 5 5 5 4 4 4 4 3 2 2 3 4 5 6 7 7 7 8 9 11 12 13 14 15 15 15 15 16 16 16 17 17 17 18 19 20 19 20 20 20 19 19 20 21 22 20 17
3 5 4 5 6 5 7 8 8 7 7 7 7 7 6 6 7 8 8 8 9 8 8 8 7 6 6 5 3 3 4 5 4 2 1 1 3 4 5 5 5 4 4 4 3 2 3 1 3 5 5 5 6 6 7 8 9 10 11 12 13 14 14 15 14 14 14 14 15 15 15 16 17 17 18 20 21 22 22 22 23 22 22 24 24 22
3 5 5 2 3 4 5 6 5 4 5 6 7 8 7 6 7 8 7 8 8 7 6 6 6 7 7 5 3 3 3 4 4 3 2 2 4 4 4 4 5 5 5 4 3 3 2 3 5 5 4 5 6 6 8 9 10 11 12 13 13 14 14 14 14 13 13 13 13 14 15 16 17 17 18 19 20 22 23 24 25 25 24 24 25 27
5 6 6 4 3 5 6 4 1 3 6 7 6 7 7 5 5 6 6 6 6 4 3 3 3 4 5 5 4 4 4 4 5 4 3 4 4 4 5 7 6 5 5 4 4 3 4 5 4 3 4 5 6 7 9 10 11 12 12 12 13 13 13 13 12 12 12 13 14 15 16 17 17 17 18 19 19 20 22 23 24 25 25 24 24 26
Wind_Direction
206 212 217 221 226 223 222 229 239 241 243 252 261 262 244 234 243 235 242 238 190 184 203 213 219 212 226 241 228 161 149 199 221 203 223 205 159 153 152 155 166 166 174 189 193 192 183 185 183 165 160 158 159 166 160 155 155 146 148 149 143 145 145 143 141 140 142 139 132 125 126 137 144 151 161 168 164 152 152 146 144 145 147 159 167 172
205 221 224 221 227 232 228 224 237 251 254 262 276 282 257 231 238 237 238 229 189 184 202 205 221 220 216 232 232 200 170 191 223 223 224 217 192 160 148 151 151 153 175 181 194 200 187 187 186 162 155 157 158 163 160 158 155 145 143 142 140 144 143 142 140 137 138 129 124 132 148 156 152 158 163 160 150 138 134 127 124 127 129 137 148 157
210 225 231 229 228 235 241 226 221 244 258 262 263 276 273 236 231 240 238 229 195 176 211 203 209 228 222 223 232 228 197 181 199 218 221 224 216 163 133 124 121 162 189 186 197 200 188 190 182 158 162 165 156 159 160 156 151 143 139 135 136 139 140 145 141 139 137 123 140 156 153 152 149 155 154 144 140 139 137 130 124 123 124 134 136 139
213 222 226 232 233 230 242 240 222 225 240 255 255 256 273 257 234 236 234 229 191 143 238 228 214 227 231 229 223 229 227 183 179 210 217 226 225 143 127 138 159 180 191 191 194 192 189 192 183 171 175 164 151 156 156 149 143 138 135 130 132 135 139 145 141 142 136 120 140 146 138 145 141 131 130 131 137 139 142 138 131 125 123 130 126 132
226 227 217 222 231 222 226 248 245 236 230 239 250 248 261 266 252 238 182 185 155 126 206 258 258 236 227 234 215 215 238 196 174 200 210 226 215 125 130 153 165 176 183 190 196 192 192 194 187 179 171 155 147 146 142 137 132 130 130 128 129 132 135 138 133 131 127 121 123 114 122 133 126 122 130 138 140 144 149 142 136 130 123 127 120 122
233 237 218 217 226 218 210 227 229 236 248 237 237 241 255 267 264 251 173 166 196 177 179 204 251 248 228 237 219 204 232 201 173 201 212 221 183 126 135 151 156 171 160 168 233 220 204 197 186 172 157 142 116 102 100 93 104 115 117 118 119 118 124 130 126 122 125 124 121 104 117 127 133 148 156 152 149 154 151 142 138 136 128 126 116 107
238 242 233 225 224 207 204 229 222 220 240 246 228 225 243 258 266 270 240 191 211 222 193 190 226 247 230 238 230 218 227 197 187 211 217 219 180 126 111 111 146 179 149 166 220 224 212 195 169 122 91 82 72 77 94 97 104 115 115 113 115 119 124 128 127 127 130 129 130 142 146 148 164 165 156 155 155 149 141 137 134 131 129 124 114 108
237 245 239 227 217 197 216 232 221 216 224 246 240 216 224 241 253 266 262 219 198 220 226 207 219 242 234 227 221 220 223 207 208 212 207 220 184 118 105 102 198 210 174 189 209 209 195 86 63 61 78 89 89 99 116 121 124 131 136 134 130 130 129 128 129 132 137 136 133 261 266 188 170 156 144 148 149 138 136 141 140 136 133 128 122 118
216 235 226 216 220 215 226 233 221 216 219 239 251 237 221 229 241 255 259 239 214 220 234 217 214 231 243 233 218 215 219 216 215 207 201 215 175 120 129 151 196 206 192 203 192 109 87 79 76 81 95 106 112 124 135 139 139 140 144 142 136 133 131 132 133 137 143 138 126 277 287 238 148 143 151 151 146 141 144 149 146 141 133 127 121 119
211 213 206 214 225 224 227 231 226 219 221 237 249 259 255 231 228 245 254 242 229 227 234 226 216 223 246 238 217 211 219 220 213 200 203 204 140 120 138 161 183 189 184 178 84 76 89 99 99 99 100 93 96 127 141 146 148 147 147 144 139 139 143 142 142 148 147 134 134 176 263 231 147 155 164 149 144 145 149 154 145 137 137 136 126 115
234 211 208 217 217 229 232 227 229 223 220 233 236 252 264 234 211 232 244 232 231 231 236 235 222 221 251 245 220 211 206 205 208 205 200 165 112 118 139 162 177 175 174 132 83 83 95 103 107 105 102 97 84 124 151 158 159 155 152 150 145 147 155 153 152 157 146 136 151 170 192 185 163 166 160 148 151 154 155 161 158 153 147 136 129 125
239 216 202 229 225 230 235 232 237 223 209 224 231 239 263 237 205 221 223 220 231 230 234 235 217 206 235 256 245 207 185 205 217 216 194 147 118 129 145 145 158 167 163 102 78 90 105 106 112 106 103 112 118 143 183 172 165 158 152 151 148 151 157 158 158 157 146 146 164 166 163 177 171 163 159 158 161 163 166 171 168 160 146 133 134 137
236 227 201 221 231 233 237 237 241 220 202 222 226 218 245 236 208 218 215 211 232 233 230 234 226 214 225 260 63 71 48 293 219 163 149 133 123 136 148 142 145 164 143 109 102 166 138 113 115 113 116 130 145 168 204 179 162 160 156 153 152 155 159 162 161 156 152 159 168 162 160 170 170 166 167 169 169 169 172 173 171 164 151 147 147 139
218 232 219 214 217 225 237 240 221 203 206 226 226 212 224 228 216 223 222 216 232 235 224 226 243 233 183 123 96 97 65 24 51 112 125 147 136 140 143 134 155 181 140 124 143 176 136 112 115 122 130 142 154 171 196 187 166 163 161 158 158 160 163 166 163 159 160 166 167 161 159 163 166 167 167 172 176 172 172 173 174 169 154 147 142 134
214 225 219 213 204 198 218 238 235 214 202 214 230 230 220 220 221 225 231 229 241 245 223 204 203 215 171 113 89 101 97 64 56 79 87 103 134 146 143 139 171 195 149 129 137 133 108 110 108 115 134 151 166 174 188 188 169 162 162 163 162 162 166 167 164 163 165 167 165 159 157 160 163 164 165 172 176 173 173 175 172 157 144 142 137 131
228 230 207 207 210 193 201 228 245 243 221 204 218 230 227 222 215 214 235 230 267 282 242 206 196 125 129 110 100 122 122 104 85 83 85 78 89 129 155 158 171 179 147 121 115 108 101 106 111 127 145 157 166 165 169 178 171 163 162 163 165 164 165 167 167 167 167 165 164 160 159 161 163 163 164 166 170 173 171 169 162 145 140 140 134 130
231 244 208 196 206 204 200 214 229 236 240 216 216 220 220 219 208 201 225 178 143 273 242 164 71 104 137 157 155 149 137 121 119 125 103 69 57 62 112 153 157 147 124 103 99 105 107 116 133 151 157 156 158 151 143 154 173 170 162 160 161 162 164 167 169 169 166 163 162 162 161 162 162 162 164 162 162 165 164 163 154 140 138 137 133 133
231 266 256 214 210 206 202 211 219 222 225 227 230 230 229 222 204 183 226 208 201 236 221 171 166 168 186 192 157 148 146 139 127 104 83 72 65 61 75 116 115 99 97 96 102 114 120 126 128 134 143 131 137 135 129 143 174 180 168 158 154 155 159 163 164 162 161 159 161 166 165 164 162 158 159 159 158 160 160 159 156 146 141 138 137 138
218 238 279 264 235 201 197 219 222 218 223 231 231 169 248 239 213 190 213 233 220 229 240 207 191 176 271 213 170 165 152 131 114 95 84 84 89 78 71 77 80 82 90 98 106 116 122 121 122 158 226 84 104 122 124 135 167 164 156 151 142 143 147 151 154 154 154 158 162 166 167 165 158 150 153 156 154 159 161 161 160 153 149 147 143 143
241 226 248 259 236 194 187 219 229 217 221 233 237 215 231 248 254 237 226 236 229 222 241 226 198 125 23 0 112 141 123 111 113 104 98 96 87 70 62 60 65 78 100 116 119 119 124 136 150 174 172 103 113 130 116 111 133 130 130 136 131 133 139 144 151 152 154 162 164 166 168 164 153 144 151 155 152 157 162 162 161 157 157 155 150 149
221 236 241 251 229 208 200 202 218 229 224 225 228 230 232 216 209 230 238 257 248 235 250 245 199 82 23 6 53 92 89 90 110 104 99 98 74 52 39 36 31 43 87 109 112 111 113 127 135 131 115 107 114 119 114 126 151 134 126 133 131 135 144 152 158 158 160 166 168 168 167 161 152 147 150 153 152 156 160 162 163 162 161 161 159 159
183 179 216 256 231 231 243 209 209 229 235 228 218 224 230 219 214 225 234 253 246 246 282 297 114 77 18 359 64 88 82 93 132 122 124 135 122 112 102 355 336 347 77 89 100 108 107 108 111 109 109 110 112 121 128 137 145 129 129 145 148 150 158 162 165 163 160 163 166 170 169 158 150 151 154 152 152 157 161 163 166 166 166 167 168 168
51 170 206 241 247 268 285 298 280 257 245 236 231 233 233 229 234 236 241 239 225 253 313 117 140 111 13 338 67 105 114 130 135 118 121 129 133 140 148 159 182 171 113 104 105 108 108 112 116 118 121 121 123 132 129 120 118 111 116 138 143 144 150 153 154 153 153 157 160 166 169 161 153 153 154 155 160 164 165 166 169 171 171 170 172 176
168 175 201 230 292 300 295 303 298 292 279 249 245 259 254 244 239 236 247 259 236 267 270 150 131 116 25 329 63 106 115 117 105 96 103 103 97 102 115 132 144 133 122 125 122 116 120 126 129 130 130 128 128 129 119 115 119 113 110 122 125 126 128 131 137 142 144 150 154 157 160 160 158 156 153 157 166 167 165 168 172 175 176 174 175 180
286 259 222 221 234 246 277 290 279 312 354 329 293 283 257 245 250 250 240 249 263 257 255 251 113 126 117 328 102 101 98 96 94 91 94 97 95 95 102 109 105 100 110 118 117 117 119 121 123 123 120 115 113 110 105 104 105 106 118 128 129 129 128 129 134 136 138 143 149 151 154 158 160 159 157 160 165 165 166 172 176 180 182 179 177 181
296 318 317 257 239 205 222 258 234 336 3 334 327 324 285 255 258 299 271 243 254 262 282 342 126 134 125 120 104 95 94 97 97 97 100 105 111 111 105 91 83 86 92 94 94 91 87 90 99 104 108 112 113 106 96 90 89 87 93 107 116 116 111 111 118 125 132 139 143 145 150 156 160 163 164 163 165 166 169 175 180 183 186 185 182 184
158 213 39 298 289 143 172 160 86 28 360 346 352 354 335 300 272 266 261 251 252 266 14 94 137 135 126 121 106 97 107 117 110 113 118 112 107 104 96 88 87 89 87 85 82 81 84 90 94 98 103 109 108 101 92 87 86 79 72 73 79 83 85 89 99 115 125 127 129 136 144 152 158 164 168 169 172 174 177 183 187 187 189 189 188 189
233 226 194 268 251 153 157 143 87 31 360 354 354 357 353 347 336 299 254 237 237 249 242 152 144 134 126 121 110 105 112 121 126 129 128 117 111 110 104 99 97 91 86 86 85 83 81 82 89 99 103 104 103 102 97 90 85 79 72 69 66 60 63 73 85 96 101 106 114 124 136 144 152 160 166 169 173 178 182 188 192 194 195 192 189 192
248 244 195 211 241 217 181 162 149 157 285 332 339 347 1 12 7 347 322 306 267 145 136 141 130 118 119 120 111 105 104 104 106 108 111 114 118 120 113 106 102 94 88 88 85 79 70 61 59 75 92 101 107 110 110 105 97 86 76 72 68 66 64 63 71 77 77 84 97 109 123 136 147 156 162 168 176 183 187 190 194 198 202 199 193 194
253 252 207 208 235 237 217 193 189 203 217 230 263 312 352 26 26 13 1 356 40 113 120 125 114 103 112 117 107 103 105 106 105 102 106 114 118 116 108 103 101 96 93 92 86 78 69 57 48 49 56 66 78 84 89 98 103 102 101 94 78 70 74 70 69 76 79 80 86 95 107 123 141 153 157 165 175 183 186 190 192 193 199 204 200 198
275 240 221 223 231 234 220 206 212 217 216 215 221 247 284 350 16 46 44 0 13 100 103 102 100 100 113 112 102 102 104 106 107 101 94 99 105 106 102 100 100 97 95 92 82 67 53 43 37 37 38 39 44 47 46 56 76 82 91 103 95 79 77 76 70 70 71 74 82 88 90 97 120 138 147 157 164 169 175 185 194 193 195 208 212 209
280 215 179 230 231 231 213 206 212 212 220 228 227 237 247 257 354 48 81 55 25 108 103 94 97 111 119 114 109 108 105 104 104 98 86 79 88 92 87 82 82 83 80 72 62 51 42 37 33 32 31 30 32 34 30 28 36 45 50 70 86 86 88 89 89 90 85 77 76 84 85 78 93 114 125 137 149 157 166 181 197 201 203 212 219 222
292 284 192 219 230 236 223 214 211 213 232 234 239 281 266 218 156 93 83 93 118 152 136 125 136 136 135 136 128 117 110 103 95 86 76 68 72 75 71 65 63 62 59 53 49 45 42 39 34 30 30 31 29 30 28 22 18 23 31 34 41 58 86 92 85 81 81 79 66 64 78 80 90 107 114 127 146 161 173 185 204 216 218 222 230 238
271 271 280 258 235 250 318 292 218 207 227 262 328 343 334 181 162 157 111 91 98 119 109 104 122 133 146 148 130 114 102 89 77 69 63 57 61 66 64 60 56 52 47 40 38 38 36 36 34 28 27 27 24 24 26 22 15 16 25 24 19 22 39 66 72 55 44 48 43 32 35 42 47 59 74 113 151 182 207 210 222 228 221 224 236 243
235 250 51 327 272 34 4 346 223 202 229 323 337 356 12 47 169 162 121 101 105 113 109 111 126 140 147 132 112 100 92 83 75 70 65 61 64 68 68 65 62 58 54 46 38 31 27 29 30 28 24 22 22 22 22 20 15 15 20 19 16 19 25 37 53 45 29 27 27 20 19 22 21 22 17 7 17 271 241 231 231 231 224 220 224 230
168 179 101 70 31 41 10 291 200 255 349 22 20 8 10 21 62 119 119 122 133 134 130 128 127 129 126 114 102 94 89 82 73 68 68 68 69 72 75 76 76 74 72 69 63 47 35 31 30 29 26 23 24 26 22 19 18 16 16 16 15 16 19 26 35 32 21 15 13 10 10 9 6 4 358 350 346 331 302 277 249 240 236 231 230 228
143 124 108 124 123 229 217 173 110 27 349 26 31 19 15 23 18 24 128 141 130 129 131 117 102 93 93 98 100 99 96 90 81 78 85 90 88 89 95 101 101 97 90 82 77 68 57 49 38 32 32 29 28 29 23 18 19 18 15 15 14 12 12 19 26 23 15 8 3 1 0 359 355 352 350 345 337 329 324 317 302 286 263 243 239 237
169 161 195 191 183 213 217 198 179 179 203 19 19 7 1 6 359 349 85 112 39 56 110 110 101 96 93 97 106 112 110 102 98 108 120 119 118 119 120 122 119 114 115 115 108 99 86 79 75 52 39 31 29 32 27 16 17 19 12 7 10 9 7 14 22 18 8 359 354 351 349 347 343 339 336 332 328 327 330 326 317 311 302 283 268 258
225 191 203 216 205 201 206 219 262 119 72 35 26 355 340 348 349 333 192 142 7 53 114 113 110 112 113 117 125 132 129 115 114 133 144 143 142 140 138 138 137 137 142 143 145 157 150 121 117 117 80 43 29 29 25 16 13 14 3 357 1 1 1 10 14 4 354 351 345 338 334 328 321 317 315 314 315 319 321 319 314 308 304 301 292 279
236 218 237 245 240 229 228 234 85 94 57 15 6 345 337 341 329 300 204 162 184 124 118 121 128 130 135 144 150 151 142 128 121 128 139 138 133 132 132 135 138 138 132 122 122 146 154 140 131 121 93 64 46 24 15 18 11 1 356 354 352 355 1 4 359 349 344 340 329 320 315 310 305 303 304 303 303 304 305 306 306 303 299 298 295 287
340 350 292 265 267 267 255 222 101 97 42 343 336 337 334 321 304 250 121 139 143 123 116 115 113 105 104 117 116 79 84 103 107 111 119 116 108 107 106 105 107 104 96 95 90 68 65 93 108 87 59 47 38 19 14 18 8 359 360 355 351 357 359 352 343 338 334 328 318 310 306 303 302 301 300 297 296 296 294 292 291 291 290 288 287 283
4 359 351 344 334 308 283 225 109 98 13 314 317 334 339 322 113 93 51 30 72 105 109 97 84 81 83 87 87 81 84 96 105 109 111 110 104 101 98 96 94 88 84 96 98 65 40 47 76 61 44 41 35 24 18 11 7 9 5 356 352 352 346 337 332 330 327 324 321 315 308 304 303 302 299 296 293 291 290 287 283 282 281 280 280 280
18 351 13 26 354 324 349 29 85 91 26 333 326 346 358 17 96 92 56 47 54 71 89 86 79 87 95 92 92 97 95 96 104 106 104 103 102 100 96 91 87 81 73 76 80 60 27 23 47 35 29 42 36 25 18 10 11 12 356 345 341 334 324 321 323 322 321 320 318 316 313 309 308 307 303 300 297 293 289 285 281 279 276 275 276 276
21 350 18 48 5 327 27 58 59 73 42 18 26 49 31 38 61 63 61 68 65 65 74 70 59 70 90 96 96 97 97 100 103 104 106 109 107 107 105 95 79 68 58 50 54 43 16 12 28 20 21 37 25 12 10 6 1 353 343 340 334 322 315 315 318 317 316 316 314 313 312 310 308 307 306 304 303 301 296 290 284 280 276 273 272 269
33 29 40 58 48 41 68 94 98 86 70 62 68 71 56 60 64 57 53 60 64 70 74 65 53 52 60 80 91 87 87 96 98 96 105 114 108 100 100 98 84 65 57 54 50 33 9 359 10 18 26 26 5 340 312 297 317 328 338 343 334 324 321 320 320 320 317 315 314 311 310 308 306 305 304 304 303 302 301 298 292 284 279 274 271 268
48 39 44 88 92 79 73 89 98 84 76 77 76 65 56 67 72 67 62 58 56 65 70 66 61 50 37 48 77 80 72 78 90 100 113 115 111 107 102 95 82 62 47 50 51 29 356 340 7 51 39 359 324 308 303 314 325 325 328 333 329 324 324 323 321 321 319 316 315 314 312 310 308 307 306 305 302 298 297 297 297 292 286 278 274 273
52 2 27 104 133 123 89 100 107 99 94 91 86 78 73 72 72 73 79 79 73 73 74 71 70 65 51 49 68 87 96 91 90 110 118 114 118 120 106 85 65 48 34 36 38 17 352 349 10 27 359 321 315 333 344 343 340 332 331 333 330 326 325 325 323 322 318 313 313 314 312 311 311 311 309 306 301 297 293 290 290 291 289 284 279 275
16 323 0 87 86 72 105 116 118 115 112 107 100 98 92 84 81 81 87 94 92 90 93 96 96 96 94 86 86 113 127 115 94 63 86 113 119 102 84 66 47 34 25 25 26 11 350 339 349 348 342 335 337 349 354 346 338 334 332 332 332 329 327 326 325 320 314 310 310 310 309 308 309 310 308 305 302 301 300 296 291 289 287 286 287 290
299 316 356 74 88 91 112 124 126 123 118 107 101 103 105 104 102 101 102 107 109 110 112 112 110 110 112 113 120 129 125 118 105 59 10 76 90 74 60 49 37 22 10 10 12 336 277 278 11 3 346 340 347 353 349 338 332 334 335 333 333 332 329 326 322 315 309 307 307 306 306 307 307 307 306 305 304 303 302 302 303 302 293 286 288 298
359 3 10 53 117 123 131 137 134 122 118 114 110 113 118 123 122 121 119 113 108 108 112 119 125 124 117 108 105 110 110 103 89 61 17 44 66 63 47 38 27 7 357 352 319 274 285 8 19 6 340 341 351 348 343 341 338 337 336 333 331 329 325 320 316 311 308 308 307 308 311 311 307 304 303 302 302 301 300 301 304 307 305 298 293 295
34 24 22 27 60 91 115 132 116 99 123 130 125 119 120 123 124 122 114 105 104 104 87 79 103 117 113 106 93 84 80 72 62 47 26 32 39 34 29 29 14 346 341 340 318 325 19 21 4 347 341 345 350 349 347 345 338 334 333 333 332 328 322 317 314 310 308 308 308 311 313 311 305 302 301 299 298 299 300 302 304 304 306 307 302 297